Location: Newark
(47.3833°N, 1.3833°E)
Time: 16:16:00
(UTC+00:00)

ISS - Visible Passes

Search period start: 17 September 2019 00:00
Search period end: 27 September 2019 00:00
Orbit: 411 x 421 km, 51.6° (Epoch: 18 September)

Date Brightness Start Highest point End Pass type
(mag) Time Alt. Az. Time Alt. Az. Time Alt. Az.
18 Sep -1.5 19:24:21 10° S 19:24:55 12° S 19:24:55 12° S visible
19 Sep -1.6 18:37:48 10° SE 18:38:17 10° SE 18:38:46 10° SE visible
19 Sep -1.6 20:11:09 10° SW 20:12:13 19° SW 20:12:13 19° SW visible
20 Sep -3.2 19:22:54 10° SW 19:26:00 37° SE 19:26:18 36° SE visible
21 Sep -2.5 18:34:53 10° SSW 18:37:37 24° SE 18:40:10 11° E visible
21 Sep -2.6 20:10:48 10° WSW 20:13:05 40° W 20:13:05 40° W visible
22 Sep -3.9 19:22:16 10° WSW 19:25:36 82° SSE 19:26:46 37° ENE visible
22 Sep -0.5 20:59:23 10° WNW 20:59:41 12° WNW 20:59:41 12° WNW visible
23 Sep -3.6 18:33:51 10° SW 18:37:06 54° SSE 18:40:19 10° ENE visible
23 Sep -2.4 20:10:41 10° W 20:13:13 38° NW 20:13:13 38° NW visible
24 Sep -3.3 19:22:01 10° W 19:25:18 56° NNW 19:26:40 30° NE visible
24 Sep -0.4 20:59:16 10° WNW 20:59:34 12° WNW 20:59:34 12° WNW visible
25 Sep -3.6 18:33:22 10° WSW 18:36:42 75° NNW 18:40:02 10° ENE visible
25 Sep -2.0 20:10:36 10° WNW 20:12:55 32° NW 20:12:55 32° NW visible
26 Sep -2.8 19:21:53 10° W 19:25:04 40° N 19:26:13 29° NE visible
26 Sep -0.2 20:58:58 10° WNW 20:59:06 11° WNW 20:59:06 11° WNW visible
